DW8214 Vilamoura PT current weather conditions

sailwx.info

Wind from 144

Air temperature 31.1° C
Dewpoint 22.1° C

Last reported at 2019-Jul-22 15:01 UTC.
Time now 2019-Jul-22 15:53 UTC

Location: N 37°06' W 008°07'.
View on Google Maps.

See reports from other nearby stations

  
Tides and Currents Weather Stations Pressure Air Temp Water Temp Dewpoint Dewpoint Depression Visibility Wind Speed Wind Dir Waves Ship Positions
date/time (UTC)wind fromknots sea level pressurealtimeterstation pressurevisibilityair tempwater tempwave heightnotes
2019-Jul-22 15:01 144 31.1
2019-Jul-22 14:46 151 3 gusting 9 31.1
2019-Jul-22 14:32 138 1 gusting 7 31.7
2019-Jul-22 14:17 139 31.7
2019-Jul-22 14:01 148 0 gusting 7 31.7
2019-Jul-22 13:46 182 2 gusting 9 31.7
2019-Jul-22 13:32 156 0 gusting 10 31.7
2019-Jul-22 13:16 136 0 gusting 10 32.2
2019-Jul-22 13:01 181 0 gusting 6 32.2
2019-Jul-22 12:46 141 4 gusting 11 31.7
2019-Jul-22 12:31 188 1 gusting 8 31.7
2019-Jul-22 12:16 159 3 gusting 11 31.7
2019-Jul-22 12:01 133 2 gusting 8 31.7
2019-Jul-22 11:45 196 31.1
2019-Jul-22 11:31 161 1 gusting 7 31.1
2019-Jul-22 11:16 227 0 gusting 7 31.1
2019-Jul-22 11:00 159 30.6
2019-Jul-22 10:45 172 30.6
2019-Jul-22 10:30 170 0 gusting 7 30.6
2019-Jul-22 10:15 159 30.0
2019-Jul-22 10:00 182 30.0
2019-Jul-22 09:45 152 0 gusting 6 29.4
2019-Jul-22 09:30 213 0 gusting 7 28.9
2019-Jul-22 09:15 142 28.9
2019-Jul-22 09:03 155 28.9
2019-Jul-22 08:47 161 28.3
2019-Jul-22 08:31 175 28.3
2019-Jul-22 08:16 151 28.3
2019-Jul-22 08:01 158 28.3
2019-Jul-22 07:46 048 27.2
2019-Jul-22 07:31 051 26.1
2019-Jul-22 07:15 051 25.0
2019-Jul-22 07:00 051 24.4
2019-Jul-22 06:46 051 23.9
2019-Jul-22 06:30 051 23.3
2019-Jul-22 06:15 051 23.3
2019-Jul-22 06:00 051 23.3
2019-Jul-22 05:45 051 23.9
2019-Jul-22 05:30 051 23.9
2019-Jul-22 05:15 051 23.3
2019-Jul-22 05:00 051 23.3
2019-Jul-22 04:45 051 23.3
2019-Jul-22 04:30 051 23.3
2019-Jul-22 04:15 051 23.9
2019-Jul-22 04:00 051 23.9
2019-Jul-22 03:45 051 23.9
2019-Jul-22 03:30 051 23.9
2019-Jul-22 03:15 051 23.9
2019-Jul-22 03:00 051 23.9
2019-Jul-22 02:31 051 23.9
2019-Jul-22 02:16 051 23.3
2019-Jul-22 02:15 051 23.3
2019-Jul-22 02:01 051 23.9
2019-Jul-22 01:46 061 23.9
2019-Jul-22 01:32 061 23.9
2019-Jul-22 01:16 071 25.0
2019-Jul-22 01:01 094 25.6
2019-Jul-22 00:46 033 26.1
2019-Jul-22 00:32 049 26.1
2019-Jul-22 00:16 053 26.1
2019-Jul-22 00:01 068 26.1
2019-Jul-21 23:46 064 25.6
2019-Jul-21 23:31 293 25.6
2019-Jul-21 23:16 293 25.6
2019-Jul-21 23:01 324 25.6
2019-Jul-21 22:45 323 25.6
2019-Jul-21 22:31 329 25.6
2019-Jul-21 22:15 329 26.1
2019-Jul-21 22:00 329 26.1
2019-Jul-21 21:46 329 26.7
2019-Jul-21 21:31 329 26.7
2019-Jul-21 21:16 348 27.2
2019-Jul-21 21:00 348 27.2
2019-Jul-21 20:46 348 27.2
2019-Jul-21 20:30 327 27.2
2019-Jul-21 20:15 205 27.2
2019-Jul-21 20:00 205 27.8
2019-Jul-21 19:45 205 27.8
2019-Jul-21 19:30 205 28.3
2019-Jul-21 19:15 205 28.3
2019-Jul-21 19:00 205 28.3
2019-Jul-21 18:46 205 28.3
2019-Jul-21 18:30 205 28.9
2019-Jul-21 18:15 205 28.9
2019-Jul-21 18:00 205 29.4
2019-Jul-21 17:45 205 30.0
2019-Jul-21 17:30 206 0 gusting 3 30.6
2019-Jul-21 17:15
2019-Jul-21 17:00
2019-Jul-21 16:45 208 0 gusting 4 30.6
2019-Jul-21 16:30 149 30.6
2019-Jul-21 16:15 123 30.0
2019-Jul-21 16:00 150 29.4
2019-Jul-21 15:45 227 29.4
2019-Jul-21 15:30 142 29.4
2019-Jul-21 15:15 153 0 gusting 6 28.9
2019-Jul-21 15:00 194 0 gusting 6 28.9
2019-Jul-21 14:45 211 1 gusting 6 28.9
2019-Jul-21 14:30 211 0 gusting 6 28.3
2019-Jul-21 14:15 152 28.9
2019-Jul-21 14:00 199 30.0
2019-Jul-21 13:45 259 29.4
2019-Jul-21 13:30 204 0 gusting 5 28.9
2019-Jul-21 13:15 210 29.4
2019-Jul-21 13:00 221 3 gusting 6 28.3
2019-Jul-21 12:45 151 28.3
2019-Jul-21 12:30 205 28.9
2019-Jul-21 12:15 215 28.3
2019-Jul-21 12:02 139 0 gusting 6 27.8
2019-Jul-21 11:48 132 27.2
2019-Jul-21 11:32 148 28.3
2019-Jul-21 11:16 157 30.6
2019-Jul-21 11:02 155 30.6
2019-Jul-21 10:46 161 31.1
2019-Jul-21 10:31 134 3 gusting 6 32.8
2019-Jul-21 10:15 032 33.9
2019-Jul-21 10:00 330 33.3
2019-Jul-21 09:46 005 32.2
2019-Jul-21 09:32 005 0 gusting 2 31.1
2019-Jul-21 09:15 135 30.0
2019-Jul-21 09:01 196 28.3
2019-Jul-21 08:45 331 28.3
2019-Jul-21 08:30 331 27.8
2019-Jul-21 08:15 331 27.2
2019-Jul-21 08:02 331 26.1
2019-Jul-21 07:47 012 25.0
2019-Jul-21 07:31 042 24.4
2019-Jul-21 07:16 013 23.3
2019-Jul-21 07:01 011 22.8
2019-Jul-21 06:46 012 22.2
2019-Jul-21 06:32 005 22.2
2019-Jul-21 06:15 019 22.2
2019-Jul-21 06:00 024 22.2
2019-Jul-21 05:45 342 22.2
2019-Jul-21 05:30 019 22.8
2019-Jul-21 05:16 355 22.8
2019-Jul-21 05:00 360 22.8
2019-Jul-21 04:45 031 1 gusting 7 22.8
2019-Jul-21 04:30 049 0 gusting 3 22.8
2019-Jul-21 04:15 338 22.8
2019-Jul-21 04:00 316 22.8
2019-Jul-21 03:45 342 0 gusting 6 22.8
2019-Jul-21 03:30 355 0 gusting 6 22.8
2019-Jul-21 03:15 321 1 gusting 7 23.3
2019-Jul-21 03:00 338 0 gusting 6 23.3
2019-Jul-21 02:45 360 0 gusting 5 23.3
2019-Jul-21 02:30 023 23.9
2019-Jul-21 02:15 355 23.9
2019-Jul-21 02:02 338 2 gusting 6 23.9
2019-Jul-21 01:46 292 24.4
2019-Jul-21 01:32 005 0 gusting 9 24.4
2019-Jul-21 01:16 349 24.4
2019-Jul-21 01:02 350 24.4
2019-Jul-21 00:47 340 0 gusting 5 24.4
2019-Jul-21 00:32 355 0 gusting 7 24.4
2019-Jul-21 00:17 330 1 gusting 7 24.4
2019-Jul-21 00:02 005 25.0
2019-Jul-20 23:46 324 2 gusting 9 25.0
2019-Jul-20 23:31 311 2 gusting 10 25.6
2019-Jul-20 23:16 309 1 gusting 8 25.6
2019-Jul-20 23:02 344 26.1
2019-Jul-20 22:46 303 26.1
2019-Jul-20 22:31 355 26.1
2019-Jul-20 22:16 344 26.1
2019-Jul-20 22:01 302 0 gusting 5 26.7
2019-Jul-20 21:46 340 0 gusting 6 26.7
2019-Jul-20 21:31 288 27.2
2019-Jul-20 21:16 296 0 gusting 6 27.2
2019-Jul-20 21:01 010 27.8
2019-Jul-20 20:46 317 27.8
2019-Jul-20 20:30 329 28.3
2019-Jul-20 20:15 012 29.4
2019-Jul-20 20:01 321 30.0
2019-Jul-20 19:46 005 30.6
2019-Jul-20 19:30 302 31.1
2019-Jul-20 19:15 294 32.2
2019-Jul-20 19:00 019 32.8
2019-Jul-20 18:46 319 33.3
2019-Jul-20 18:30 323 33.3
2019-Jul-20 18:15 289 1 gusting 5 33.3
2019-Jul-20 18:00 293 1 gusting 4 32.8
2019-Jul-20 17:45 285 0 gusting 3 31.7
2019-Jul-20 17:30 151 0 gusting 4 31.1
2019-Jul-20 17:15
2019-Jul-20 17:00
2019-Jul-20 16:45
2019-Jul-20 16:30 216 1 gusting 6 31.7
2019-Jul-20 16:17 225 0 gusting 5 31.7
2019-Jul-20 16:01 215 0 gusting 6 31.1
2019-Jul-20 15:46 171 31.7
2019-Jul-20 15:32 184 1 gusting 5 31.7
2019-Jul-20 15:17 195 31.1
2019-Jul-20 15:01 204 0 gusting 6 31.1